| time (UTC) | temp C | wind direction | speed KPH | gust KPH | rain 1hr cm | rain 24hr cm | rain mn cm | humidity % | barometer mb |
| 20260505041212 | 11 | 194 | 4.8 | 8.0 | 0.00 | 0.79 | 0.03 | 92 | 1012.7 |
| 20260505040719 | 11 | 196 | 3.2 | 6.4 | 0.00 | 0.79 | 0.03 | 92 | 1012.7 |
| 20260505040216 | 11 | 194 | 3.2 | 6.4 | 0.00 | 0.79 | 0.03 | 92 | 1012.6 |
| 20260505035715 | 11 | 165 | 4.8 | 6.4 | 0.00 | 0.79 | 0.03 | 92 | 1012.6 |
| 20260505035217 | 11 | 177 | 3.2 | 6.4 | 0.03 | 0.79 | 0.03 | 92 | 1012.7 |
| 20260505034710 | 11 | 164 | 3.2 | 6.4 | 0.03 | 0.79 | 0.03 | 93 | 1012.7 |
| 20260505033718 | 11 | 174 | 1.6 | 6.4 | 0.03 | 0.79 | 0.03 | 93 | 1012.5 |
| 20260505033217 | 10 | 160 | 3.2 | 6.4 | 0.03 | 0.79 | 0.03 | 93 | 1012.5 |
| 20260505032717 | 10 | 206 | 1.6 | 6.4 | 0.03 | 0.79 | 0.03 | 93 | 1012.5 |
| 20260505032208 | 10 | 206 | 3.2 | 6.4 | 0.03 | 0.79 | 0.03 | 93 | 1012.5 |
| 20260505031717 | 10 | 222 | 1.6 | 4.8 | 0.03 | 0.79 | 0.03 | 94 | 1012.5 |
| 20260505030709 | 10 | 192 | 3.2 | 6.4 | 0.03 | 0.79 | 0.03 | 94 | 1012.5 |
| 20260505030207 | 10 | 199 | 3.2 | 6.4 | 0.03 | 0.79 | 0.03 | 94 | 1012.6 |
| 20260505025715 | 10 | 241 | 3.2 | 6.4 | 0.03 | 0.79 | 0.03 | 94 | 1012.6 |
| 20260505025206 | 10 | 230 | 3.2 | 3.2 | 0.00 | 0.76 | 0.00 | 94 | 1012.6 |
| 20260505024718 | 10 | 239 | 1.6 | 3.2 | 0.00 | 0.76 | 0.00 | 94 | 1012.6 |
| 20260505024218 | 10 | 278 | 1.6 | 3.2 | 0.00 | 0.76 | 0.00 | 94 | 1012.6 |
| 20260505023707 | 10 | 271 | 1.6 | 3.2 | 0.00 | 0.76 | 0.00 | 94 | 1012.6 |
| 20260505023215 | 10 | 205 | 1.6 | 4.8 | 0.00 | 0.76 | 0.00 | 94 | 1012.6 |
| 20260505022707 | 10 | 187 | 1.6 | 4.8 | 0.00 | 0.76 | 0.00 | 94 | 1012.6 |
| 20260505022215 | 10 | 192 | 1.6 | 6.4 | 0.00 | 0.76 | 0.00 | 94 | 1012.6 |
| 20260505021705 | 10 | 196 | 1.6 | 8.0 | 0.00 | 0.76 | 0.00 | 93 | 1012.7 |
| 20260505021207 | 10 | 188 | 3.2 | 8.0 | 0.00 | 0.76 | 0.00 | 93 | 1012.6 |
| 20260505020718 | 10 | 232 | 4.8 | 8.0 | 0.00 | 0.76 | 0.00 | 93 | 1012.7 |
| 20260505015717 | 10 | 167 | 0.0 | 4.8 | 0.00 | 0.76 | 0.00 | 93 | 1012.9 |
| 20260505015215 | 10 | 187 | 0.0 | 6.4 | 0.00 | 0.76 | 0.00 | 93 | 1012.8 |
| 20260505014705 | 10 | 180 | 3.2 | 6.4 | 0.00 | 0.76 | 0.00 | 92 | 1012.9 |
| 20260505013718 | 10 | 196 | 3.2 | 4.8 | 0.00 | 0.76 | 0.00 | 93 | 1012.8 |
| 20260505013207 | 10 | 225 | 0.0 | 6.4 | 0.00 | 0.76 | 0.00 | 93 | 1012.8 |
| 20260505012712 | 10 | 191 | 1.6 | 6.4 | 0.00 | 0.76 | 0.00 | 93 | 1012.8 |
| 20260505012211 | 10 | 210 | 3.2 | 6.4 | 0.00 | 0.76 | 0.00 | 93 | 1012.8 |
| 20260505011710 | 10 | 194 | 3.2 | 6.4 | 0.00 | 0.76 | 0.00 | 93 | 1012.8 |
| 20260505011210 | 10 | 234 | 0.0 | 6.4 | 0.00 | 0.76 | 0.00 | 93 | 1013.0 |
| 20260505010709 | 10 | 295 | 1.6 | 6.4 | 0.00 | 0.76 | 0.00 | 92 | 1012.9 |
| 20260505010206 | 10 | 213 | 0.0 | 4.8 | 0.00 | 0.76 | 0.00 | 92 | 1012.9 |
| 20260505005707 | 10 | 227 | 0.0 | 4.8 | 0.00 | 0.76 | 0.00 | 92 | 1013.0 |
| 20260505005216 | 10 | 0 | 0.0 | 1.6 | 0.00 | 0.76 | 0.00 | 92 | 1013.0 |
| 20260505004705 | 11 | 248 | 0.0 | 3.2 | 0.00 | 0.76 | 0.00 | 92 | 1013.0 |
| 20260505003710 | 11 | 274 | 0.0 | 3.2 | 0.00 | 0.76 | 0.00 | 92 | 1013.1 |
| 20260505002707 | 11 | 229 | 3.2 | 4.8 | 0.00 | 0.76 | 0.00 | 92 | 1013.3 |
| 20260505002209 | 11 | 265 | 3.2 | 4.8 | 0.00 | 0.76 | 0.00 | 92 | 1013.3 |
| 20260505001713 | 11 | 212 | 1.6 | 8.0 | 0.00 | 0.76 | 0.00 | 91 | 1013.2 |
| 20260505001216 | 11 | 223 | 3.2 | 8.0 | 0.00 | 0.76 | 0.00 | 91 | 1013.2 |
| 20260505000707 | 11 | 286 | 3.2 | 8.0 | 0.00 | 0.76 | 0.00 | 91 | 1013.2 |
| 20260505000206 | 11 | 288 | 1.6 | 3.2 | 0.00 | 0.76 | 0.00 | 91 | 1013.2 |
| 20260504235716 | 11 | 274 | 0.0 | 3.2 | 0.00 | 0.76 | 0.00 | 92 | 1013.2 |
| 20260504235219 | 11 | 60 | 0.0 | 0.0 | 0.00 | 0.76 | 0.00 | 92 | 1013.1 |
| 20260504234705 | 11 | 0 | 0.0 | 0.0 | 0.00 | 0.76 | 0.00 | 93 | 1013.1 |
| 20260504233716 | 11 | 0 | 0.0 | 0.0 | 0.00 | 0.76 | 0.00 | 93 | 1013.2 |
| 20260504233210 | 11 | 0 | 0.0 | 3.2 | 0.00 | 0.76 | 0.00 | 93 | 1013.1 |
| 20260504232710 | 11 | 0 | 0.0 | 3.2 | 0.00 | 0.76 | 0.00 | 93 | 1013.1 |
| 20260504232218 | 11 | 352 | 0.0 | 3.2 | 0.00 | 0.76 | 0.00 | 93 | 1013.1 |
| 20260504231709 | 11 | 12 | 0.0 | 3.2 | 0.00 | 0.76 | 0.00 | 93 | 1013.2 |
| 20260504231218 | 11 | 0 | 0.0 | 3.2 | 0.00 | 0.76 | 0.00 | 93 | 1013.1 |
| 20260504230715 | 11 | 225 | 0.0 | 1.6 | 0.00 | 0.76 | 0.00 | 92 | 1013.1 |
| 20260504230210 | 11 | 201 | 0.0 | 1.6 | 0.00 | 0.76 | 0.00 | 93 | 1013.2 |
| 20260504225711 | 11 | 11 | 0.0 | 3.2 | 0.00 | 0.76 | 0.00 | 93 | 1013.2 |
| 20260504225210 | 11 | 0 | 0.0 | 3.2 | 0.00 | 0.76 | 0.00 | 93 | 1013.2 |
| 20260504224212 | 11 | 0 | 0.0 | 0.0 | 0.00 | 0.76 | 0.00 | 92 | 1013.2 |
| 20260504223707 | 11 | 0 | 0.0 | 0.0 | 0.00 | 0.76 | 0.00 | 92 | 1013.0 |
| 20260504223207 | 11 | 0 | 0.0 | 1.6 | 0.03 | 0.76 | 0.00 | 92 | 1013.1 |
| 20260504221211 | 11 | 0 | 0.0 | 0.0 | 0.05 | 0.76 | 0.00 | 91 | 1013.2 |
| 20260504220715 | 12 | 0 | 0.0 | 1.6 | 0.05 | 0.76 | 0.00 | 91 | 1013.2 |
| 20260504220209 | 12 | 341 | 0.0 | 3.2 | 0.05 | 0.76 | 0.76 | 90 | 1013.3 |
| 20260504215205 | 12 | 355 | 1.6 | 0.0 | 0.05 | 0.76 | 0.76 | 89 | 1013.4 |
| 20260504214234 | 12 | 0 | 0.0 | 8.0 | 0.05 | 0.76 | 0.76 | 88 | 1013.6 |
| 20260504213709 | 12 | 233 | 1.6 | 8.0 | 0.03 | 0.74 | 0.74 | 87 | 1013.7 |
| 20260504213211 | 12 | 215 | 3.2 | 8.0 | 0.03 | 0.74 | 0.74 | 87 | 1013.7 |
| 20260504212706 | 12 | 185 | 3.2 | 4.8 | 0.03 | 0.74 | 0.74 | 87 | 1013.7 |
| 20260504212208 | 12 | 306 | 1.6 | 9.7 | 0.03 | 0.74 | 0.74 | 86 | 1013.7 |
| 20260504211717 | 12 | 215 | 0.0 | 12.9 | 0.00 | 0.71 | 0.71 | 86 | 1013.7 |
| 20260504211216 | 12 | 227 | 3.2 | 16.1 | 0.00 | 0.71 | 0.71 | 86 | 1013.6 |
| 20260504210712 | 12 | 213 | 8.0 | 16.1 | 0.00 | 0.71 | 0.71 | 86 | 1013.6 |
| 20260504210225 | 12 | 216 | 8.0 | 12.9 | 0.00 | 0.71 | 0.71 | 85 | 1013.7 |
| 20260504205713 | 12 | 233 | 6.4 | 9.7 | 0.00 | 0.71 | 0.71 | 85 | 1013.7 |
| 20260504205205 | 12 | 212 | 4.8 | 11.3 | 0.00 | 0.71 | 0.71 | 86 | 1013.7 |
| 20260504204715 | 12 | 255 | 4.8 | 12.9 | 0.00 | 0.71 | 0.71 | 86 | 1013.6 |
| 20260504203205 | 12 | 201 | 6.4 | 14.5 | 0.00 | 0.71 | 0.71 | 87 | 1013.6 |
| 20260504202210 | 12 | 205 | 4.8 | 14.5 | 0.00 | 0.71 | 0.71 | 86 | 1013.5 |
| 20260504201713 | 12 | 210 | 6.4 | 14.5 | 0.00 | 0.71 | 0.71 | 86 | 1013.4 |
| 20260504201206 | 12 | 226 | 6.4 | 14.5 | 0.00 | 0.71 | 0.71 | 86 | 1013.3 |
| 20260504200729 | 12 | 227 | 6.4 | 14.5 | 0.00 | 0.71 | 0.71 | 86 | 1013.3 |
| 20260504195712 | 12 | 220 | 6.4 | 14.5 | 0.00 | 0.71 | 0.71 | 86 | 1013.3 |
| 20260504195206 | 12 | 213 | 9.7 | 16.1 | 0.03 | 0.71 | 0.71 | 86 | 1013.2 |
| 20260504194706 | 12 | 212 | 6.4 | 27.4 | 0.05 | 0.71 | 0.71 | 86 | 1013.2 |
| 20260504194211 | 12 | 248 | 8.0 | 27.4 | 0.08 | 0.71 | 0.71 | 86 | 1013.1 |
| 20260504193716 | 12 | 225 | 12.9 | 27.4 | 0.13 | 0.71 | 0.71 | 87 | 1013.0 |
| 20260504193213 | 12 | 281 | 12.9 | 27.4 | 0.13 | 0.71 | 0.71 | 86 | 1013.0 |
| 20260504192719 | 13 | 209 | 9.7 | 30.6 | 0.13 | 0.71 | 0.71 | 86 | 1012.8 |
| 20260504192216 | 13 | 232 | 14.5 | 32.2 | 0.13 | 0.71 | 0.71 | 87 | 1012.7 |
| 20260504191705 | 13 | 230 | 16.1 | 32.2 | 0.13 | 0.71 | 0.71 | 87 | 1012.5 |
| 20260504191215 | 13 | 237 | 16.1 | 32.2 | 0.15 | 0.71 | 0.71 | 87 | 1012.5 |
| 20260504190713 | 13 | 267 | 14.5 | 33.8 | 0.20 | 0.71 | 0.71 | 88 | 1012.3 |
| 20260504185712 | 13 | 215 | 14.5 | 24.1 | 0.30 | 0.71 | 0.71 | 87 | 1012.3 |
| 20260504185210 | 13 | 292 | 8.0 | 14.5 | 0.30 | 0.71 | 0.71 | 89 | 1012.2 |
| 20260504184713 | 13 | 267 | 8.0 | 16.1 | 0.28 | 0.66 | 0.66 | 90 | 1012.0 |
| 20260504184218 | 13 | 278 | 3.2 | 20.9 | 0.25 | 0.61 | 0.61 | 91 | 1011.9 |
| 20260504183714 | 13 | 230 | 6.4 | 20.9 | 0.23 | 0.61 | 0.61 | 91 | 1011.6 |
| 20260504183212 | 13 | 243 | 6.4 | 16.1 | 0.25 | 0.61 | 0.61 | 91 | 1011.5 |
| 20260504182718 | 13 | 262 | 9.7 | 22.5 | 0.25 | 0.61 | 0.61 | 91 | 1011.5 |
| 20260504182214 | 13 | 268 | 9.7 | 22.5 | 0.25 | 0.61 | 0.61 | 91 | 1011.4 |
| 20260504181209 | 13 | 255 | 6.4 | 17.7 | 0.25 | 0.58 | 0.58 | 91 | 1011.6 |
| 20260504180719 | 13 | 296 | 6.4 | 16.1 | 0.15 | 0.46 | 0.46 | 91 | 1011.5 |
| 20260504180207 | 13 | 268 | 8.0 | 20.9 | 0.15 | 0.43 | 0.43 | 91 | 1011.4 |
| 20260504175713 | 13 | 258 | 8.0 | 20.9 | 0.15 | 0.43 | 0.43 | 91 | 1011.5 |
| 20260504175214 | 13 | 244 | 11.3 | 20.9 | 0.23 | 0.41 | 0.41 | 91 | 1011.4 |
| 20260504174712 | 13 | 246 | 8.0 | 14.5 | 0.30 | 0.38 | 0.38 | 91 | 1011.3 |
| 20260504174216 | 13 | 229 | 6.4 | 16.1 | 0.33 | 0.36 | 0.36 | 91 | 1011.2 |
| 20260504173705 | 13 | 255 | 6.4 | 20.9 | 0.33 | 0.33 | 0.33 | 91 | 1011.3 |
| 20260504173218 | 13 | 248 | 8.0 | 20.9 | 0.33 | 0.33 | 0.33 | 91 | 1011.2 |
| 20260504172706 | 13 | 264 | 9.7 | 22.5 | 0.33 | 0.33 | 0.33 | 91 | 1011.2 |
| 20260504172207 | 13 | 243 | 11.3 | 22.5 | 0.30 | 0.33 | 0.33 | 91 | 1011.2 |
| 20260504171718 | 13 | 271 | 11.3 | 25.7 | 0.30 | 0.33 | 0.33 | 91 | 1011.1 |
| 20260504171219 | 13 | 271 | 12.9 | 25.7 | 0.30 | 0.33 | 0.33 | 91 | 1011.1 |
| 20260504170715 | 13 | 241 | 14.5 | 27.4 | 0.28 | 0.30 | 0.30 | 91 | 1011.0 |
| 20260504170209 | 13 | 232 | 11.3 | 29.0 | 0.28 | 0.30 | 0.30 | 90 | 1011.0 |
| 20260504160211 | 15 | 49 | 12.9 | 27.4 | 0.00 | 0.03 | 0.03 | 86 | 1009.5 |
| 20260504150707 | 16 | 59 | 14.5 | 30.6 | 0.00 | 0.03 | 0.03 | 79 | 1009.8 |
| 20260504150207 | 17 | 16 | 14.5 | 30.6 | 0.00 | 0.03 | 0.03 | 79 | 1009.8 |
| 20260504141214 | 18 | 5 | 19.3 | 30.6 | 0.00 | 0.03 | 0.03 | 77 | 1009.2 |
| 20260504130706 | 18 | 2 | 16.1 | 32.2 | 0.00 | 0.03 | 0.03 | 75 | 1010.3 |
| 20260504130219 | 18 | 4 | 16.1 | 30.6 | 0.00 | 0.03 | 0.03 | 76 | 1010.4 |
| 20260504120212 | 18 | 358 | 16.1 | 25.7 | 0.00 | 0.03 | 0.03 | 75 | 1011.1 |
| 20260504110709 | 18 | 9 | 11.3 | 19.3 | 0.03 | 0.03 | 0.03 | 78 | 1011.6 |
| 20260504110214 | 18 | 4 | 11.3 | 14.5 | 0.03 | 0.03 | 0.03 | 81 | 1011.7 |
| 20260504100216 | 17 | 59 | 3.2 | 9.7 | 0.00 | 0.00 | 0.00 | 82 | 1012.3 |
| 20260504081715 | 16 | 188 | 3.2 | 8.0 | 0.00 | 0.00 | 0.00 | 80 | 1012.6 |
| 20260504081216 | 16 | 209 | 1.6 | 8.0 | 0.00 | 0.00 | 0.00 | 80 | 1012.7 |
| 20260504080714 | 16 | 229 | 1.6 | 8.0 | 0.00 | 0.00 | 0.00 | 81 | 1012.7 |
| 20260504070217 | 15 | 0 | 0.0 | 4.8 | 0.00 | 0.00 | 0.00 | 87 | 1012.3 |
| 20260504060210 | 14 | 0 | 0.0 | 1.6 | 0.00 | 0.00 | 0.00 | 91 | 1011.6 |
| 20260504050711 | 13 | 165 | 1.6 | 4.8 | 0.00 | 0.00 | 0.00 | 92 | 1011.4 |
| 20260504050217 | 13 | 178 | 1.6 | 3.2 | 0.00 | 0.00 | 0.00 | 92 | 1011.5 |
| 20260504045717 | 13 | 210 | 1.6 | 4.8 | 0.00 | 0.00 | 0.00 | 92 | 1011.3 |